TimeMST,TemperatureF,Dew PointF,Humidity,Sea Level PressureIn,VisibilityMPH,Wind Direction,Wind SpeedMPH,Gust SpeedMPH,PrecipitationIn,Events,Conditions,WindDirDegrees,DateUTC
12:53 AM,45.0,24.1,44,29.84,10.0,SW,10.4,-,N/A,,Clear,230,2012-12-02 07:53:00
1:53 AM,46.0,25.0,44,29.85,10.0,SW,12.7,-,N/A,,Clear,230,2012-12-02 08:53:00
2:53 AM,46.0,26.1,46,29.86,10.0,WSW,9.2,-,N/A,,Clear,240,2012-12-02 09:53:00
3:53 AM,39.0,25.0,57,29.87,10.0,ESE,4.6,-,N/A,,Clear,110,2012-12-02 10:53:00
4:53 AM,37.0,26.1,65,29.88,10.0,SE,6.9,-,N/A,,Clear,140,2012-12-02 11:53:00
5:53 AM,39.0,27.0,62,29.85,10.0,SE,6.9,-,N/A,,Clear,140,2012-12-02 12:53:00
6:53 AM,48.0,27.0,44,29.81,10.0,SSW,16.1,-,N/A,,Clear,200,2012-12-02 13:53:00
7:53 AM,44.1,26.1,49,29.81,10.0,South,13.8,-,N/A,,Clear,180,2012-12-02 14:53:00
8:53 AM,51.1,25.0,36,29.78,10.0,SSE,17.3,25.3,N/A,,Clear,160,2012-12-02 15:53:00
9:53 AM,54.0,23.0,30,29.71,10.0,South,11.5,25.3,N/A,,Clear,180,2012-12-02 16:53:00
10:53 AM,57.0,23.0,27,29.67,10.0,South,16.1,20.7,N/A,,Clear,190,2012-12-02 17:53:00
11:53 AM,57.9,21.9,25,29.61,10.0,South,21.9,28.8,N/A,,Clear,180,2012-12-02 18:53:00
12:53 PM,57.9,21.9,25,29.60,10.0,SSE,18.4,24.2,N/A,,Clear,160,2012-12-02 19:53:00
1:53 PM,60.1,24.1,25,29.56,10.0,SSW,23.0,31.1,N/A,,Clear,210,2012-12-02 20:53:00
2:53 PM,59.0,25.0,27,29.53,10.0,SSW,15.0,20.7,N/A,,Clear,200,2012-12-02 21:53:00
3:53 PM,57.0,24.1,28,29.56,10.0,SW,17.3,-,N/A,,Clear,220,2012-12-02 22:53:00
4:53 PM,57.0,24.1,28,29.54,10.0,SSW,20.7,28.8,N/A,,Clear,210,2012-12-02 23:53:00
5:53 PM,55.9,24.1,29,29.55,10.0,SW,12.7,-,N/A,,Clear,220,2012-12-03 00:53:00
6:53 PM,52.0,25.0,35,29.53,10.0,SSE,6.9,-,N/A,,Clear,160,2012-12-03 01:53:00
7:53 PM,57.0,23.0,27,29.50,10.0,WSW,28.8,42.6,N/A,,Clear,250,2012-12-03 02:53:00
8:53 PM,57.0,24.1,28,29.45,10.0,SW,32.2,44.9,N/A,,Clear,230,2012-12-03 03:53:00
9:53 PM,53.1,27.0,37,29.52,10.0,West,16.1,-,N/A,,Clear,270,2012-12-03 04:53:00
10:53 PM,52.0,28.9,41,29.51,10.0,WSW,15.0,27.6,N/A,,Clear,250,2012-12-03 05:53:00
11:53 PM,53.1,30.9,43,29.52,10.0,WSW,27.6,39.1,N/A,,Clear,250,2012-12-03 06:53:00